#datetime,building,power
2022-05-20T00:00:00,rvs,15.20
2022-05-20T00:01:00,rvs,19.31
2022-05-20T00:02:00,rvs,19.64
2022-05-20T00:03:00,rvs,17.73
2022-05-20T00:04:00,rvs,19.00
2022-05-20T00:05:00,rvs,25.13
2022-05-20T00:06:00,rvs,25.23
2022-05-20T00:07:00,rvs,19.94
2022-05-20T00:08:00,rvs,20.74
2022-05-20T00:09:00,rvs,25.15
2022-05-20T00:10:00,rvs,21.91
2022-05-20T00:11:00,rvs,18.44
2022-05-20T00:12:00,rvs,21.82
2022-05-20T00:13:00,rvs,21.70
2022-05-20T00:14:00,rvs,17.69
2022-05-20T00:15:00,rvs,18.15
2022-05-20T00:16:00,rvs,21.63
2022-05-20T00:17:00,rvs,21.42
2022-05-20T00:18:00,rvs,17.01
2022-05-20T00:19:00,rvs,17.37
2022-05-20T00:20:00,rvs,21.53
2022-05-20T00:21:00,rvs,17.71
2022-05-20T00:22:00,rvs,17.69
2022-05-20T00:23:00,rvs,17.85
2022-05-20T00:24:00,rvs,17.86
2022-05-20T00:25:00,rvs,13.88
2022-05-20T00:26:00,rvs,15.73
2022-05-20T00:27:00,rvs,19.85
2022-05-20T00:28:00,rvs,16.01
2022-05-20T00:29:00,rvs,17.28
2022-05-20T00:30:00,rvs,20.41
2022-05-20T00:31:00,rvs,20.73
2022-05-20T00:32:00,rvs,17.23
2022-05-20T00:33:00,rvs,17.27
2022-05-20T00:34:00,rvs,17.03
2022-05-20T00:35:00,rvs,14.26
2022-05-20T00:36:00,rvs,14.27
2022-05-20T00:37:00,rvs,14.34
2022-05-20T00:38:00,rvs,14.22
2022-05-20T00:39:00,rvs,14.33
2022-05-20T00:40:00,rvs,14.23
2022-05-20T00:41:00,rvs,15.11
2022-05-20T00:42:00,rvs,14.47
2022-05-20T00:43:00,rvs,14.33
2022-05-20T00:44:00,rvs,14.76
2022-05-20T00:45:00,rvs,14.64
2022-05-20T00:46:00,rvs,14.74
2022-05-20T00:47:00,rvs,14.24
2022-05-20T00:48:00,rvs,14.27
2022-05-20T00:49:00,rvs,15.22
2022-05-20T00:50:00,rvs,14.31
2022-05-20T00:51:00,rvs,13.98
2022-05-20T00:52:00,rvs,13.83
2022-05-20T00:53:00,rvs,18.32
2022-05-20T00:54:00,rvs,17.90
2022-05-20T00:55:00,rvs,13.29
2022-05-20T00:56:00,rvs,13.33
2022-05-20T00:57:00,rvs,13.23
2022-05-20T00:58:00,rvs,13.22
2022-05-20T00:59:00,rvs,13.39
2022-05-20T01:00:00,rvs,13.19
2022-05-20T01:01:00,rvs,13.27
2022-05-20T01:02:00,rvs,13.10
2022-05-20T01:03:00,rvs,13.18
2022-05-20T01:04:00,rvs,13.25
2022-05-20T01:05:00,rvs,13.33
2022-05-20T01:06:00,rvs,13.26
2022-05-20T01:07:00,rvs,13.17
2022-05-20T01:08:00,rvs,12.94
2022-05-20T01:09:00,rvs,13.08
2022-05-20T01:10:00,rvs,12.90
2022-05-20T01:11:00,rvs,12.96
2022-05-20T01:12:00,rvs,13.00
2022-05-20T01:13:00,rvs,13.00
2022-05-20T01:14:00,rvs,13.16
2022-05-20T01:15:00,rvs,13.24
2022-05-20T01:16:00,rvs,13.19
2022-05-20T01:17:00,rvs,13.36
2022-05-20T01:18:00,rvs,13.16
2022-05-20T01:19:00,rvs,13.30
2022-05-20T01:20:00,rvs,12.96
2022-05-20T01:21:00,rvs,13.65
2022-05-20T01:22:00,rvs,13.48
2022-05-20T01:23:00,rvs,13.54
2022-05-20T01:24:00,rvs,13.61
2022-05-20T01:25:00,rvs,13.30
2022-05-20T01:26:00,rvs,13.33
2022-05-20T01:27:00,rvs,13.48
2022-05-20T01:28:00,rvs,13.35
2022-05-20T01:29:00,rvs,12.86
2022-05-20T01:30:00,rvs,12.92
2022-05-20T01:31:00,rvs,13.09
2022-05-20T01:32:00,rvs,12.95
2022-05-20T01:33:00,rvs,13.04
2022-05-20T01:34:00,rvs,12.92
2022-05-20T01:35:00,rvs,12.99
2022-05-20T01:36:00,rvs,12.91
2022-05-20T01:37:00,rvs,12.98
2022-05-20T01:38:00,rvs,13.17
2022-05-20T01:39:00,rvs,13.24
2022-05-20T01:40:00,rvs,13.39
2022-05-20T01:41:00,rvs,13.14
2022-05-20T01:42:00,rvs,13.10
2022-05-20T01:43:00,rvs,13.09
2022-05-20T01:44:00,rvs,13.09
2022-05-20T01:45:00,rvs,13.01
2022-05-20T01:46:00,rvs,13.16
2022-05-20T01:47:00,rvs,13.09
2022-05-20T01:48:00,rvs,13.37
2022-05-20T01:49:00,rvs,13.17
2022-05-20T01:50:00,rvs,13.24
2022-05-20T01:51:00,rvs,12.98
2022-05-20T01:52:00,rvs,13.13
2022-05-20T01:53:00,rvs,12.71
2022-05-20T01:54:00,rvs,12.79
2022-05-20T01:55:00,rvs,12.89
2022-05-20T01:56:00,rvs,18.27
2022-05-20T01:57:00,rvs,18.48
2022-05-20T01:58:00,rvs,14.41
2022-05-20T01:59:00,rvs,14.64
2022-05-20T02:00:00,rvs,14.65
2022-05-20T02:01:00,rvs,14.71
2022-05-20T02:02:00,rvs,14.30
2022-05-20T02:03:00,rvs,15.14
2022-05-20T02:04:00,rvs,15.09
2022-05-20T02:05:00,rvs,15.17
2022-05-20T02:06:00,rvs,15.11
2022-05-20T02:07:00,rvs,15.25
2022-05-20T02:08:00,rvs,15.35
2022-05-20T02:09:00,rvs,15.80
2022-05-20T02:10:00,rvs,16.03
2022-05-20T02:11:00,rvs,17.61
2022-05-20T02:12:00,rvs,16.29
2022-05-20T02:13:00,rvs,15.37
2022-05-20T02:14:00,rvs,15.27
2022-05-20T02:15:00,rvs,15.26
2022-05-20T02:16:00,rvs,14.85
2022-05-20T02:17:00,rvs,14.64
2022-05-20T02:18:00,rvs,14.64
2022-05-20T02:19:00,rvs,15.14
2022-05-20T02:20:00,rvs,14.98
2022-05-20T02:21:00,rvs,17.73
2022-05-20T02:22:00,rvs,15.17
2022-05-20T02:23:00,rvs,15.17
2022-05-20T02:24:00,rvs,15.02
2022-05-20T02:25:00,rvs,15.02
2022-05-20T02:26:00,rvs,12.95
2022-05-20T02:27:00,rvs,16.86
2022-05-20T02:28:00,rvs,17.35
2022-05-20T02:29:00,rvs,15.60
2022-05-20T02:30:00,rvs,15.67
2022-05-20T02:31:00,rvs,16.40
2022-05-20T02:32:00,rvs,18.02
2022-05-20T02:33:00,rvs,17.54
2022-05-20T02:34:00,rvs,18.42
2022-05-20T02:35:00,rvs,18.83
2022-05-20T02:36:00,rvs,18.69
2022-05-20T02:37:00,rvs,18.60
2022-05-20T02:38:00,rvs,17.63
2022-05-20T02:39:00,rvs,17.38
2022-05-20T02:40:00,rvs,18.72
2022-05-20T02:41:00,rvs,19.13
2022-05-20T02:42:00,rvs,18.63
2022-05-20T02:43:00,rvs,19.12
2022-05-20T02:44:00,rvs,19.64
2022-05-20T02:45:00,rvs,16.42
2022-05-20T02:46:00,rvs,16.52
2022-05-20T02:47:00,rvs,16.91
2022-05-20T02:48:00,rvs,17.88
2022-05-20T02:49:00,rvs,13.26
2022-05-20T02:50:00,rvs,13.02
2022-05-20T02:51:00,rvs,12.90
2022-05-20T02:52:00,rvs,12.97
2022-05-20T02:53:00,rvs,13.11
2022-05-20T02:54:00,rvs,13.04
2022-05-20T02:55:00,rvs,12.98
2022-05-20T02:56:00,rvs,12.85
2022-05-20T02:57:00,rvs,12.68
2022-05-20T02:58:00,rvs,17.18
2022-05-20T02:59:00,rvs,16.97
2022-05-20T03:00:00,rvs,17.35
2022-05-20T03:01:00,rvs,12.84
2022-05-20T03:02:00,rvs,12.87
2022-05-20T03:03:00,rvs,12.80
2022-05-20T03:04:00,rvs,12.75
2022-05-20T03:05:00,rvs,12.66
2022-05-20T03:06:00,rvs,12.65
2022-05-20T03:07:00,rvs,12.66
2022-05-20T03:08:00,rvs,12.73
2022-05-20T03:09:00,rvs,12.53
2022-05-20T03:10:00,rvs,12.57
2022-05-20T03:11:00,rvs,12.65
2022-05-20T03:12:00,rvs,12.43
2022-05-20T03:13:00,rvs,12.35
2022-05-20T03:14:00,rvs,12.32
2022-05-20T03:15:00,rvs,12.72
2022-05-20T03:16:00,rvs,12.90
2022-05-20T03:17:00,rvs,12.84
2022-05-20T03:18:00,rvs,12.93
2022-05-20T03:19:00,rvs,12.92
2022-05-20T03:20:00,rvs,13.25
2022-05-20T03:21:00,rvs,26.49
2022-05-20T03:22:00,rvs,26.16
2022-05-20T03:23:00,rvs,26.11
2022-05-20T03:24:00,rvs,25.99
2022-05-20T03:25:00,rvs,25.82
2022-05-20T03:26:00,rvs,13.58
2022-05-20T03:27:00,rvs,13.09
2022-05-20T03:28:00,rvs,13.19
2022-05-20T03:29:00,rvs,12.95
2022-05-20T03:30:00,rvs,13.52
2022-05-20T03:31:00,rvs,13.45
2022-05-20T03:32:00,rvs,13.21
2022-05-20T03:33:00,rvs,13.32
2022-05-20T03:34:00,rvs,13.19
2022-05-20T03:35:00,rvs,12.80
2022-05-20T03:36:00,rvs,12.63
2022-05-20T03:37:00,rvs,12.79
2022-05-20T03:38:00,rvs,12.74
2022-05-20T03:39:00,rvs,12.94
2022-05-20T03:40:00,rvs,12.90
2022-05-20T03:41:00,rvs,12.88
2022-05-20T03:42:00,rvs,12.89
2022-05-20T03:43:00,rvs,12.76
2022-05-20T03:44:00,rvs,12.61
2022-05-20T03:45:00,rvs,12.61
2022-05-20T03:46:00,rvs,12.91
2022-05-20T03:47:00,rvs,12.79
2022-05-20T03:48:00,rvs,14.03
2022-05-20T03:49:00,rvs,14.64
2022-05-20T03:50:00,rvs,14.97
2022-05-20T03:51:00,rvs,14.75
2022-05-20T03:52:00,rvs,14.70
2022-05-20T03:53:00,rvs,15.10
2022-05-20T03:54:00,rvs,15.55
2022-05-20T03:55:00,rvs,16.20
2022-05-20T03:56:00,rvs,12.95
2022-05-20T03:57:00,rvs,12.93
2022-05-20T03:58:00,rvs,17.35
2022-05-20T03:59:00,rvs,17.39
2022-05-20T04:00:00,rvs,12.83
2022-05-20T04:01:00,rvs,12.71
2022-05-20T04:02:00,rvs,12.58
2022-05-20T04:03:00,rvs,12.45
2022-05-20T04:04:00,rvs,12.45
2022-05-20T04:05:00,rvs,12.54
2022-05-20T04:06:00,rvs,12.45
2022-05-20T04:07:00,rvs,12.35
2022-05-20T04:08:00,rvs,12.29
2022-05-20T04:09:00,rvs,12.45
2022-05-20T04:10:00,rvs,12.48
2022-05-20T04:11:00,rvs,12.68
2022-05-20T04:12:00,rvs,12.95
2022-05-20T04:13:00,rvs,12.95
2022-05-20T04:14:00,rvs,12.67
2022-05-20T04:15:00,rvs,12.84
2022-05-20T04:16:00,rvs,12.86
2022-05-20T04:17:00,rvs,13.17
2022-05-20T04:18:00,rvs,13.20
2022-05-20T04:19:00,rvs,13.16
2022-05-20T04:20:00,rvs,13.16
2022-05-20T04:21:00,rvs,13.12
2022-05-20T04:22:00,rvs,13.89
2022-05-20T04:23:00,rvs,13.44
2022-05-20T04:24:00,rvs,13.31
2022-05-20T04:25:00,rvs,13.35
2022-05-20T04:26:00,rvs,13.27
2022-05-20T04:27:00,rvs,13.40
2022-05-20T04:28:00,rvs,13.43
2022-05-20T04:29:00,rvs,13.35
2022-05-20T04:30:00,rvs,13.16
2022-05-20T04:31:00,rvs,13.05
2022-05-20T04:32:00,rvs,13.96
2022-05-20T04:33:00,rvs,13.36
2022-05-20T04:34:00,rvs,13.46
2022-05-20T04:35:00,rvs,13.55
2022-05-20T04:36:00,rvs,13.33
2022-05-20T04:37:00,rvs,13.33
2022-05-20T04:38:00,rvs,13.23
2022-05-20T04:39:00,rvs,13.25
2022-05-20T04:40:00,rvs,13.13
2022-05-20T04:41:00,rvs,13.21
2022-05-20T04:42:00,rvs,13.14
2022-05-20T04:43:00,rvs,13.49
2022-05-20T04:44:00,rvs,13.50
2022-05-20T04:45:00,rvs,13.29
2022-05-20T04:46:00,rvs,13.05
2022-05-20T04:47:00,rvs,13.42
2022-05-20T04:48:00,rvs,13.29
2022-05-20T04:49:00,rvs,13.62
2022-05-20T04:50:00,rvs,13.08
2022-05-20T04:51:00,rvs,12.45
2022-05-20T04:52:00,rvs,12.30
2022-05-20T04:53:00,rvs,12.37
2022-05-20T04:54:00,rvs,12.35
2022-05-20T04:55:00,rvs,17.63
2022-05-20T04:56:00,rvs,18.92
2022-05-20T04:57:00,rvs,18.90
2022-05-20T04:58:00,rvs,16.33
2022-05-20T04:59:00,rvs,16.53
2022-05-20T05:00:00,rvs,14.95
2022-05-20T05:01:00,rvs,15.34
2022-05-20T05:02:00,rvs,15.83
2022-05-20T05:03:00,rvs,16.39
2022-05-20T05:04:00,rvs,16.78
2022-05-20T05:05:00,rvs,16.84
2022-05-20T05:06:00,rvs,16.82
2022-05-20T05:07:00,rvs,17.14
2022-05-20T05:08:00,rvs,17.19
2022-05-20T05:09:00,rvs,12.76
2022-05-20T05:10:00,rvs,12.52
2022-05-20T05:11:00,rvs,12.57
2022-05-20T05:12:00,rvs,12.38
2022-05-20T05:13:00,rvs,12.52
2022-05-20T05:14:00,rvs,12.39
2022-05-20T05:15:00,rvs,12.33
2022-05-20T05:16:00,rvs,12.62
2022-05-20T05:17:00,rvs,12.55
2022-05-20T05:18:00,rvs,12.88
2022-05-20T05:19:00,rvs,12.81
2022-05-20T05:20:00,rvs,12.69
2022-05-20T05:21:00,rvs,12.45
2022-05-20T05:22:00,rvs,12.50
2022-05-20T05:23:00,rvs,12.44
2022-05-20T05:24:00,rvs,12.30
2022-05-20T05:25:00,rvs,12.48
2022-05-20T05:26:00,rvs,12.35
2022-05-20T05:27:00,rvs,12.41
2022-05-20T05:28:00,rvs,13.14
2022-05-20T05:29:00,rvs,14.37
2022-05-20T05:30:00,rvs,14.73
2022-05-20T05:31:00,rvs,14.36
2022-05-20T05:32:00,rvs,14.75
2022-05-20T05:33:00,rvs,15.45
2022-05-20T05:34:00,rvs,12.38
2022-05-20T05:35:00,rvs,12.24
2022-05-20T05:36:00,rvs,12.45
2022-05-20T05:37:00,rvs,12.41
2022-05-20T05:38:00,rvs,14.13
2022-05-20T05:39:00,rvs,14.98
2022-05-20T05:40:00,rvs,15.19
2022-05-20T05:41:00,rvs,15.35
2022-05-20T05:42:00,rvs,15.77
2022-05-20T05:43:00,rvs,12.99
2022-05-20T05:44:00,rvs,12.77
2022-05-20T05:45:00,rvs,12.89
2022-05-20T05:46:00,rvs,12.99
2022-05-20T05:47:00,rvs,12.82
2022-05-20T05:48:00,rvs,12.93
2022-05-20T05:49:00,rvs,12.59
2022-05-20T05:50:00,rvs,12.47
2022-05-20T05:51:00,rvs,17.04
2022-05-20T05:52:00,rvs,16.90
2022-05-20T05:53:00,rvs,17.01
2022-05-20T05:54:00,rvs,29.59
2022-05-20T05:55:00,rvs,12.60
2022-05-20T05:56:00,rvs,12.42
2022-05-20T05:57:00,rvs,12.47
2022-05-20T05:58:00,rvs,12.33
2022-05-20T05:59:00,rvs,12.50
2022-05-20T06:00:00,rvs,12.48
2022-05-20T06:01:00,rvs,13.37
2022-05-20T06:02:00,rvs,15.32
2022-05-20T06:03:00,rvs,15.52
2022-05-20T06:04:00,rvs,14.60
2022-05-20T06:05:00,rvs,12.82
2022-05-20T06:06:00,rvs,12.90
2022-05-20T06:07:00,rvs,12.67
2022-05-20T06:08:00,rvs,12.87
2022-05-20T06:09:00,rvs,12.72
2022-05-20T06:10:00,rvs,13.04
2022-05-20T06:11:00,rvs,12.62
2022-05-20T06:12:00,rvs,13.01
2022-05-20T06:13:00,rvs,12.80
2022-05-20T06:14:00,rvs,12.88
2022-05-20T06:15:00,rvs,12.87
2022-05-20T06:16:00,rvs,12.95
2022-05-20T06:17:00,rvs,13.07
2022-05-20T06:18:00,rvs,12.61
2022-05-20T06:19:00,rvs,12.62
2022-05-20T06:20:00,rvs,12.76
2022-05-20T06:21:00,rvs,12.10
2022-05-20T06:22:00,rvs,12.10
2022-05-20T06:23:00,rvs,12.34
2022-05-20T06:24:00,rvs,12.24
2022-05-20T06:25:00,rvs,12.44
2022-05-20T06:26:00,rvs,12.26
2022-05-20T06:27:00,rvs,12.49
2022-05-20T06:28:00,rvs,12.49
2022-05-20T06:29:00,rvs,12.37
2022-05-20T06:30:00,rvs,12.23
2022-05-20T06:31:00,rvs,12.12
2022-05-20T06:32:00,rvs,12.33
2022-05-20T06:33:00,rvs,12.25
2022-05-20T06:34:00,rvs,12.17
2022-05-20T06:35:00,rvs,12.05
2022-05-20T06:36:00,rvs,12.56
2022-05-20T06:37:00,rvs,12.63
2022-05-20T06:38:00,rvs,12.67
2022-05-20T06:39:00,rvs,12.86
2022-05-20T06:40:00,rvs,12.79
2022-05-20T06:41:00,rvs,13.02
2022-05-20T06:42:00,rvs,12.88
2022-05-20T06:43:00,rvs,12.98
2022-05-20T06:44:00,rvs,12.87
2022-05-20T06:45:00,rvs,12.85
2022-05-20T06:46:00,rvs,12.68
2022-05-20T06:47:00,rvs,12.80
2022-05-20T06:48:00,rvs,17.12
2022-05-20T06:49:00,rvs,16.97
2022-05-20T06:50:00,rvs,17.26
2022-05-20T06:51:00,rvs,13.58
2022-05-20T06:52:00,rvs,14.77
2022-05-20T06:53:00,rvs,15.18
2022-05-20T06:54:00,rvs,15.29
2022-05-20T06:55:00,rvs,29.08
2022-05-20T06:56:00,rvs,29.50
2022-05-20T06:57:00,rvs,29.51
2022-05-20T06:58:00,rvs,31.44
2022-05-20T06:59:00,rvs,18.58
2022-05-20T07:00:00,rvs,18.27
2022-05-20T07:01:00,rvs,14.80
2022-05-20T07:02:00,rvs,15.06
2022-05-20T07:03:00,rvs,15.50
2022-05-20T07:04:00,rvs,15.90
2022-05-20T07:05:00,rvs,16.91
2022-05-20T07:06:00,rvs,12.41
2022-05-20T07:07:00,rvs,12.94
2022-05-20T07:08:00,rvs,11.99
2022-05-20T07:09:00,rvs,12.15
2022-05-20T07:10:00,rvs,12.26
2022-05-20T07:11:00,rvs,12.40
2022-05-20T07:12:00,rvs,12.20
2022-05-20T07:13:00,rvs,12.25
2022-05-20T07:14:00,rvs,12.03
2022-05-20T07:15:00,rvs,12.09
2022-05-20T07:16:00,rvs,12.30
2022-05-20T07:17:00,rvs,12.29
2022-05-20T07:18:00,rvs,12.21
2022-05-20T07:19:00,rvs,12.31
2022-05-20T07:20:00,rvs,12.28
2022-05-20T07:21:00,rvs,12.19
2022-05-20T07:22:00,rvs,12.27
2022-05-20T07:23:00,rvs,12.25
2022-05-20T07:24:00,rvs,12.25
2022-05-20T07:25:00,rvs,12.74
2022-05-20T07:26:00,rvs,12.69
2022-05-20T07:27:00,rvs,12.96
2022-05-20T07:28:00,rvs,12.95
2022-05-20T07:29:00,rvs,12.96
2022-05-20T07:30:00,rvs,13.11
2022-05-20T07:31:00,rvs,13.13
2022-05-20T07:32:00,rvs,13.12
2022-05-20T07:33:00,rvs,13.38
2022-05-20T07:34:00,rvs,13.31
2022-05-20T07:35:00,rvs,13.24
2022-05-20T07:36:00,rvs,13.05
2022-05-20T07:37:00,rvs,13.22
2022-05-20T07:38:00,rvs,13.68
2022-05-20T07:39:00,rvs,14.68
2022-05-20T07:40:00,rvs,15.02
2022-05-20T07:41:00,rvs,15.59
2022-05-20T07:42:00,rvs,15.04
2022-05-20T07:43:00,rvs,14.42
2022-05-20T07:44:00,rvs,16.11
2022-05-20T07:45:00,rvs,16.55
2022-05-20T07:46:00,rvs,21.37
2022-05-20T07:47:00,rvs,19.70
2022-05-20T07:48:00,rvs,19.49
2022-05-20T07:49:00,rvs,14.64
2022-05-20T07:50:00,rvs,14.63
2022-05-20T07:51:00,rvs,14.02
2022-05-20T07:52:00,rvs,13.85
2022-05-20T07:53:00,rvs,13.82
2022-05-20T07:54:00,rvs,13.02
2022-05-20T07:55:00,rvs,12.84
2022-05-20T07:56:00,rvs,13.01
2022-05-20T07:57:00,rvs,12.77
2022-05-20T07:58:00,rvs,12.81
2022-05-20T07:59:00,rvs,12.81
2022-05-20T08:00:00,rvs,12.70
2022-05-20T08:01:00,rvs,12.66
2022-05-20T08:02:00,rvs,12.57
2022-05-20T08:03:00,rvs,12.36
2022-05-20T08:04:00,rvs,12.35
2022-05-20T08:05:00,rvs,12.91
2022-05-20T08:06:00,rvs,12.89
2022-05-20T08:07:00,rvs,12.60
2022-05-20T08:08:00,rvs,12.41
2022-05-20T08:09:00,rvs,12.87
2022-05-20T08:10:00,rvs,12.68
2022-05-20T08:11:00,rvs,12.99
2022-05-20T08:12:00,rvs,12.69
2022-05-20T08:13:00,rvs,12.85
2022-05-20T08:14:00,rvs,12.74
2022-05-20T08:15:00,rvs,12.72
2022-05-20T08:16:00,rvs,12.27
2022-05-20T08:17:00,rvs,12.21
2022-05-20T08:18:00,rvs,12.74
2022-05-20T08:19:00,rvs,12.87
2022-05-20T08:20:00,rvs,13.01
2022-05-20T08:21:00,rvs,12.79
2022-05-20T08:22:00,rvs,13.04
2022-05-20T08:23:00,rvs,12.77
2022-05-20T08:24:00,rvs,12.86
2022-05-20T08:25:00,rvs,13.12
2022-05-20T08:26:00,rvs,12.87
2022-05-20T08:27:00,rvs,12.84
2022-05-20T08:28:00,rvs,12.82
2022-05-20T08:29:00,rvs,12.93
2022-05-20T08:30:00,rvs,12.84
2022-05-20T08:31:00,rvs,13.16
2022-05-20T08:32:00,rvs,13.22
2022-05-20T08:33:00,rvs,13.28
2022-05-20T08:34:00,rvs,13.50
2022-05-20T08:35:00,rvs,13.60
2022-05-20T08:36:00,rvs,13.43
2022-05-20T08:37:00,rvs,13.43
2022-05-20T08:38:00,rvs,13.42
2022-05-20T08:39:00,rvs,13.36
2022-05-20T08:40:00,rvs,13.31
2022-05-20T08:41:00,rvs,13.47
2022-05-20T08:42:00,rvs,13.46
2022-05-20T08:43:00,rvs,30.17
2022-05-20T08:44:00,rvs,15.36
2022-05-20T08:45:00,rvs,16.06
2022-05-20T08:46:00,rvs,16.22
2022-05-20T08:47:00,rvs,16.05
2022-05-20T08:48:00,rvs,16.10
2022-05-20T08:49:00,rvs,16.54
2022-05-20T08:50:00,rvs,16.43
2022-05-20T08:51:00,rvs,16.29
2022-05-20T08:52:00,rvs,16.48
2022-05-20T08:53:00,rvs,16.34
2022-05-20T08:54:00,rvs,13.40
2022-05-20T08:55:00,rvs,17.73
2022-05-20T08:56:00,rvs,17.45
2022-05-20T08:57:00,rvs,17.53
2022-05-20T08:58:00,rvs,17.62
2022-05-20T08:59:00,rvs,13.45
2022-05-20T09:00:00,rvs,13.59
2022-05-20T09:01:00,rvs,13.16
2022-05-20T09:02:00,rvs,14.21
2022-05-20T09:03:00,rvs,13.71
2022-05-20T09:04:00,rvs,13.97
2022-05-20T09:05:00,rvs,13.75
2022-05-20T09:06:00,rvs,13.72
2022-05-20T09:07:00,rvs,13.71
2022-05-20T09:08:00,rvs,14.09
2022-05-20T09:09:00,rvs,29.73
2022-05-20T09:10:00,rvs,13.87
2022-05-20T09:11:00,rvs,16.00
2022-05-20T09:12:00,rvs,16.13
2022-05-20T09:13:00,rvs,15.74
2022-05-20T09:14:00,rvs,15.74
2022-05-20T09:15:00,rvs,16.46
2022-05-20T09:16:00,rvs,16.34
2022-05-20T09:17:00,rvs,18.02
2022-05-20T09:18:00,rvs,17.88
2022-05-20T09:19:00,rvs,18.66
2022-05-20T09:20:00,rvs,18.64
2022-05-20T09:21:00,rvs,19.11
2022-05-20T09:22:00,rvs,20.91
2022-05-20T09:23:00,rvs,14.83
2022-05-20T09:24:00,rvs,14.49
2022-05-20T09:25:00,rvs,14.38
2022-05-20T09:26:00,rvs,18.80
2022-05-20T09:27:00,rvs,20.33
2022-05-20T09:28:00,rvs,20.82
2022-05-20T09:29:00,rvs,22.26
2022-05-20T09:30:00,rvs,28.21
2022-05-20T09:31:00,rvs,27.39
2022-05-20T09:32:00,rvs,27.65
2022-05-20T09:33:00,rvs,28.22
2022-05-20T09:34:00,rvs,33.28
2022-05-20T09:35:00,rvs,53.13
2022-05-20T09:36:00,rvs,35.23
2022-05-20T09:37:00,rvs,35.51
2022-05-20T09:38:00,rvs,36.14
2022-05-20T09:39:00,rvs,35.93
2022-05-20T09:40:00,rvs,31.86
2022-05-20T09:41:00,rvs,27.18
2022-05-20T09:42:00,rvs,27.08
2022-05-20T09:43:00,rvs,27.04
2022-05-20T09:44:00,rvs,26.94
2022-05-20T09:45:00,rvs,27.14
2022-05-20T09:46:00,rvs,27.88
2022-05-20T09:47:00,rvs,28.09
2022-05-20T09:48:00,rvs,28.00
2022-05-20T09:49:00,rvs,27.96
2022-05-20T09:50:00,rvs,28.34
2022-05-20T09:51:00,rvs,27.34
2022-05-20T09:52:00,rvs,26.97
2022-05-20T09:53:00,rvs,27.11
2022-05-20T09:54:00,rvs,27.26
2022-05-20T09:55:00,rvs,27.52
2022-05-20T09:56:00,rvs,27.82
2022-05-20T09:57:00,rvs,27.19
2022-05-20T09:58:00,rvs,27.27
2022-05-20T09:59:00,rvs,23.19
2022-05-20T10:00:00,rvs,23.07
2022-05-20T10:01:00,rvs,22.99
2022-05-20T10:02:00,rvs,26.83
2022-05-20T10:03:00,rvs,23.39
2022-05-20T10:04:00,rvs,16.62
2022-05-20T10:05:00,rvs,16.69
2022-05-20T10:06:00,rvs,28.72
2022-05-20T10:07:00,rvs,28.97
2022-05-20T10:08:00,rvs,25.93
2022-05-20T10:09:00,rvs,18.30
2022-05-20T10:10:00,rvs,20.06
2022-05-20T10:11:00,rvs,33.61
2022-05-20T10:12:00,rvs,34.48
2022-05-20T10:13:00,rvs,31.08
2022-05-20T10:14:00,rvs,18.34
2022-05-20T10:15:00,rvs,22.38
2022-05-20T10:16:00,rvs,22.44
2022-05-20T10:17:00,rvs,26.80
2022-05-20T10:18:00,rvs,31.30
2022-05-20T10:19:00,rvs,26.42
2022-05-20T10:20:00,rvs,26.91
2022-05-20T10:21:00,rvs,22.33
2022-05-20T10:22:00,rvs,22.03
2022-05-20T10:23:00,rvs,23.17
2022-05-20T10:24:00,rvs,18.82
2022-05-20T10:25:00,rvs,22.96
2022-05-20T10:26:00,rvs,18.94
2022-05-20T10:27:00,rvs,19.38
2022-05-20T10:28:00,rvs,23.34
2022-05-20T10:29:00,rvs,23.25
2022-05-20T10:30:00,rvs,23.47
2022-05-20T10:31:00,rvs,15.36
2022-05-20T10:32:00,rvs,19.82
2022-05-20T10:33:00,rvs,19.88
2022-05-20T10:34:00,rvs,23.44
2022-05-20T10:35:00,rvs,26.10
2022-05-20T10:36:00,rvs,18.62
2022-05-20T10:37:00,rvs,17.76
2022-05-20T10:38:00,rvs,17.99
2022-05-20T10:39:00,rvs,18.74
2022-05-20T10:40:00,rvs,36.80
2022-05-20T10:41:00,rvs,36.47
2022-05-20T10:42:00,rvs,36.45
2022-05-20T10:43:00,rvs,35.81
2022-05-20T10:44:00,rvs,35.19
2022-05-20T10:45:00,rvs,23.65
2022-05-20T10:46:00,rvs,24.15
2022-05-20T10:47:00,rvs,23.57
2022-05-20T10:48:00,rvs,18.75
2022-05-20T10:49:00,rvs,18.61
2022-05-20T10:50:00,rvs,18.36
2022-05-20T10:51:00,rvs,18.08
2022-05-20T10:52:00,rvs,17.91
2022-05-20T10:53:00,rvs,19.73
2022-05-20T10:54:00,rvs,19.60
2022-05-20T10:55:00,rvs,19.48
2022-05-20T10:56:00,rvs,18.78
2022-05-20T10:57:00,rvs,19.77
2022-05-20T10:58:00,rvs,18.13
2022-05-20T10:59:00,rvs,18.35
2022-05-20T11:00:00,rvs,14.40
2022-05-20T11:01:00,rvs,14.71
2022-05-20T11:02:00,rvs,18.42
2022-05-20T11:03:00,rvs,18.53
2022-05-20T11:04:00,rvs,14.62
2022-05-20T11:05:00,rvs,14.88
2022-05-20T11:06:00,rvs,18.87
2022-05-20T11:07:00,rvs,18.93
2022-05-20T11:08:00,rvs,18.65
2022-05-20T11:09:00,rvs,14.97
2022-05-20T11:10:00,rvs,14.64
2022-05-20T11:11:00,rvs,18.34
2022-05-20T11:12:00,rvs,18.55
2022-05-20T11:13:00,rvs,14.70
2022-05-20T11:14:00,rvs,15.17
2022-05-20T11:15:00,rvs,18.73
2022-05-20T11:16:00,rvs,20.52
2022-05-20T11:17:00,rvs,16.85
2022-05-20T11:18:00,rvs,17.06
2022-05-20T11:19:00,rvs,20.89
2022-05-20T11:20:00,rvs,25.60
2022-05-20T11:21:00,rvs,22.54
2022-05-20T11:22:00,rvs,23.40
2022-05-20T11:23:00,rvs,23.28
2022-05-20T11:24:00,rvs,26.96
2022-05-20T11:25:00,rvs,27.45
2022-05-20T11:26:00,rvs,23.45
2022-05-20T11:27:00,rvs,18.74
2022-05-20T11:28:00,rvs,23.00
2022-05-20T11:29:00,rvs,23.37
2022-05-20T11:30:00,rvs,19.33
2022-05-20T11:31:00,rvs,18.91
2022-05-20T11:32:00,rvs,22.82
2022-05-20T11:33:00,rvs,22.74
2022-05-20T11:34:00,rvs,19.17
2022-05-20T11:35:00,rvs,19.00
2022-05-20T11:36:00,rvs,24.75
2022-05-20T11:37:00,rvs,25.07
2022-05-20T11:38:00,rvs,24.76
2022-05-20T11:39:00,rvs,20.47
2022-05-20T11:40:00,rvs,18.80
2022-05-20T11:41:00,rvs,19.10
2022-05-20T11:42:00,rvs,19.08
2022-05-20T11:43:00,rvs,19.04
2022-05-20T11:44:00,rvs,19.02
2022-05-20T11:45:00,rvs,18.83
2022-05-20T11:46:00,rvs,18.64
2022-05-20T11:47:00,rvs,18.50
2022-05-20T11:48:00,rvs,18.65
2022-05-20T11:49:00,rvs,18.54
2022-05-20T11:50:00,rvs,18.81
2022-05-20T11:51:00,rvs,18.85
2022-05-20T11:52:00,rvs,18.71
2022-05-20T11:53:00,rvs,20.78
2022-05-20T11:54:00,rvs,22.04
2022-05-20T11:55:00,rvs,21.38
2022-05-20T11:56:00,rvs,21.84
2022-05-20T11:57:00,rvs,22.86
2022-05-20T11:58:00,rvs,22.62
2022-05-20T11:59:00,rvs,22.78
2022-05-20T12:00:00,rvs,23.22
2022-05-20T12:01:00,rvs,23.62
2022-05-20T12:02:00,rvs,22.96
2022-05-20T12:03:00,rvs,22.36
2022-05-20T12:04:00,rvs,22.16
2022-05-20T12:05:00,rvs,22.68
2022-05-20T12:06:00,rvs,22.89
2022-05-20T12:07:00,rvs,21.50
2022-05-20T12:08:00,rvs,21.01
2022-05-20T12:09:00,rvs,20.87
2022-05-20T12:10:00,rvs,18.16
2022-05-20T12:11:00,rvs,18.25
2022-05-20T12:12:00,rvs,18.09
2022-05-20T12:13:00,rvs,14.63
2022-05-20T12:14:00,rvs,17.29
2022-05-20T12:15:00,rvs,16.95
2022-05-20T12:16:00,rvs,20.95
2022-05-20T12:17:00,rvs,21.19
2022-05-20T12:18:00,rvs,22.18
2022-05-20T12:19:00,rvs,18.69
2022-05-20T12:20:00,rvs,18.49
2022-05-20T12:21:00,rvs,17.41
2022-05-20T12:22:00,rvs,17.41
2022-05-20T12:23:00,rvs,19.25
2022-05-20T12:24:00,rvs,22.99
2022-05-20T12:25:00,rvs,23.02
2022-05-20T12:26:00,rvs,23.51
2022-05-20T12:27:00,rvs,26.23
2022-05-20T12:28:00,rvs,25.38
2022-05-20T12:29:00,rvs,23.38
2022-05-20T12:30:00,rvs,23.66
2022-05-20T12:31:00,rvs,22.62
2022-05-20T12:32:00,rvs,22.39
2022-05-20T12:33:00,rvs,18.55
2022-05-20T12:34:00,rvs,18.76
2022-05-20T12:35:00,rvs,18.85
2022-05-20T12:36:00,rvs,14.75
2022-05-20T12:37:00,rvs,13.54
2022-05-20T12:38:00,rvs,13.89
2022-05-20T12:39:00,rvs,13.47
2022-05-20T12:40:00,rvs,13.83
2022-05-20T12:41:00,rvs,13.50
2022-05-20T12:42:00,rvs,13.58
2022-05-20T12:43:00,rvs,13.45
2022-05-20T12:44:00,rvs,13.42
2022-05-20T12:45:00,rvs,13.63
2022-05-20T12:46:00,rvs,13.46
2022-05-20T12:47:00,rvs,13.55
2022-05-20T12:48:00,rvs,13.49
2022-05-20T12:49:00,rvs,13.64
2022-05-20T12:50:00,rvs,14.62
2022-05-20T12:51:00,rvs,16.61
2022-05-20T12:52:00,rvs,16.56
2022-05-20T12:53:00,rvs,16.88
2022-05-20T12:54:00,rvs,17.56
2022-05-20T12:55:00,rvs,17.97
2022-05-20T12:56:00,rvs,18.74
2022-05-20T12:57:00,rvs,21.16
2022-05-20T12:58:00,rvs,20.63
2022-05-20T12:59:00,rvs,20.98
2022-05-20T13:00:00,rvs,21.93
2022-05-20T13:01:00,rvs,22.19
2022-05-20T13:02:00,rvs,21.87
2022-05-20T13:03:00,rvs,22.83
2022-05-20T13:04:00,rvs,18.87
2022-05-20T13:05:00,rvs,19.12
2022-05-20T13:06:00,rvs,30.90
2022-05-20T13:07:00,rvs,26.64
2022-05-20T13:08:00,rvs,26.61
2022-05-20T13:09:00,rvs,26.39
2022-05-20T13:10:00,rvs,14.24
2022-05-20T13:11:00,rvs,14.13
2022-05-20T13:12:00,rvs,18.37
2022-05-20T13:13:00,rvs,18.25
2022-05-20T13:14:00,rvs,18.70
2022-05-20T13:15:00,rvs,14.06
2022-05-20T13:16:00,rvs,14.59
2022-05-20T13:17:00,rvs,13.77
2022-05-20T13:18:00,rvs,16.06